Location: Bittkow
(50.3000°N, 19.0000°E)
Time: 21:01:44
(UTC+00:00)

ADEOS - Pass Details

Date: 19 September 2020
Orbit: 792 x 795 km, 98.9° (Epoch: 20 October)

Event Time Altitude Azimuth Distance (km) Brightness Sun altitude
Rises 03:19:10 0° 16° (NNE) 3,306 7.3 -11.4°
Reaches altitude 10° 03:21:30 10° 17° (NNE) 2,372 6.5 -11.0°
Maximum altitude 03:26:45 79° 105° (ESE) 812 3.7 -10.2°
Drops below altitude 10° 03:31:58 10° 192° (SSW) 2,354 5.8 -9.4°
Sets 03:34:17 0° 194° (SSW) 3,279 6.5 -9.0°
